Winnemucca, NV

8:05 AM PDT on April 25, 2018 (GMT -0700)
Winnemucca Municipal

Weather History for KWMC - August, 2014

Change the Weather History Date:

Wednesday, August 27, 2014

  Actual Average Record
Temperature  
Mean Temperature 66 °F 67 °F  
Max Temperature 88 °F 88 °F 102 °F (1924)
Min Temperature 44 °F 46 °F 30 °F (1954)
Degree Days  
Heating Degree Days 0 1  
Month to date heating degree days 16 11  
Since 1 June heating degree days 90 126  
Since 1 July heating degree days 16 21  
Cooling Degree Days 1 3  
Month to date cooling degree days 133 164  
Year to date cooling degree days 610 497  
Since 1 June cooling degree days 601 486  
Growing Degree Days 16 (Base 50)    
Moisture  
Dew Point 35 °F    
Average Humidity 39    
Maximum Humidity 65    
Minimum Humidity 13    
Precipitation  
Precipitation 0.00 in 0.01 in 0.41 in (1904)
Month to date precipitation 0.49 0.15  
Year to date precipitation 4.58 5.33  
Snow  
Snow 0.00 in 0.00 in 0.00 in (1877)
Month to date snowfall 0.0 0.0  
Since 1 June snowfall 0.0 T  
Since 1 July snowfall 0.0 0.0  
Snow Depth 0.00 in    
Sea Level Pressure  
Sea Level Pressure 30.06 in    
Wind  
Wind Speed 5 mph (ESE)    
Max Wind Speed 16 mph    
Max Gust Speed 25 mph    
Visibility 10 miles    
Events      
T = Trace of Precipitation, MM = Missing Value Source: NWS Daily Summary

Daily Weather History Graph

Daily Weather History Graph

Search for Another Location

Airport or City:

Astronomy

Aug. 27, 2014 Rise Set
Actual Time 6:13 AM PDT 7:31 PM PDT
Civil Twilight 5:44 AM PDT 7:59 PM PDT
Nautical Twilight 5:10 AM PDT 8:33 PM PDT
Astronomical Twilight 4:34 AM PDT 9:09 PM PDT
Moon 8:14 AM PDT (8/27) 8:24 PM PDT (8/27)
Length of Visible Light 14h 15m
Length of Day
13h 18m
Waxing Crescent, 4% of the Moon is Illuminated
Aug 27
Waxing Crescent
Sep 2
First Quarter
Sep 8
Full
Sep 15
Last Quarter
Sep 23
New

Hourly Weather History & Observations

Time (PDT) Temp. Windchill Dew Point Humidity Pressure Visibility Wind Dir Wind Speed Gust Speed Precip Events Conditions
12:56 AM 64.0 °F - 39.0 °F 40% 30.01 in 10.0 mi ENE 10.4 mph - N/A   Clear
1:56 AM 63.0 °F - 39.0 °F 41% 30.02 in 10.0 mi ENE 9.2 mph - N/A   Clear
2:56 AM 54.0 °F - 37.9 °F 55% 30.05 in 10.0 mi NE 3.5 mph - N/A   Clear
3:56 AM 50.0 °F - 35.1 °F 57% 30.06 in 10.0 mi Calm Calm - N/A   Clear
4:56 AM 46.0 °F 44.8 °F 35.1 °F 66% 30.08 in 10.0 mi SSE 3.5 mph - N/A   Clear
5:56 AM 45.0 °F 40.6 °F 34.0 °F 65% 30.11 in 10.0 mi SSE 8.1 mph - N/A   Clear
6:56 AM 48.9 °F - 35.1 °F 59% 30.12 in 10.0 mi ESE 4.6 mph - N/A   Clear
7:56 AM 59.0 °F - 37.4 °F 45% 30.23 in 10.0 mi Calm Calm - N/A   Clear
8:56 AM 64.9 °F - 39.9 °F 40% 30.11 in 10.0 mi NNE 6.9 mph - N/A   Clear
9:56 AM 72.0 °F - 39.0 °F 30% 30.11 in 10.0 mi Calm Calm - N/A   Clear
10:56 AM 77.0 °F - 37.9 °F 24% 30.09 in 10.0 mi ENE 4.6 mph - N/A   Clear
11:56 AM 82.9 °F - 36.0 °F 19% 30.07 in 10.0 mi Variable 5.8 mph - N/A   Clear
12:56 PM 82.0 °F - 36.0 °F 19% 30.06 in 10.0 mi Variable 5.8 mph - N/A   Clear
1:56 PM 84.9 °F - 35.1 °F 17% 30.04 in 10.0 mi SW 8.1 mph - N/A   Clear
2:56 PM 86.0 °F - 33.1 °F 15% 30.04 in 10.0 mi NW 11.5 mph - N/A   Clear
3:56 PM 87.1 °F - 32.0 °F 14% 30.04 in 10.0 mi Variable 6.9 mph - N/A   Clear
4:56 PM 87.1 °F - 30.9 °F 13% 30.04 in 10.0 mi North - - N/A   Clear
5:56 PM 86.0 °F - 30.9 °F 14% 30.04 in 10.0 mi West 5.8 mph - N/A   Clear
6:56 PM 84.9 °F - 32.0 °F 15% 30.02 in 10.0 mi NNW 3.5 mph - N/A   Clear
7:56 PM 73.9 °F - 35.1 °F 24% 30.03 in 10.0 mi East 4.6 mph - N/A   Clear
8:56 PM 66.0 °F - 33.1 °F 29% 30.05 in 10.0 mi SE 6.9 mph - N/A   Clear
9:56 PM 63.0 °F - 33.1 °F 33% 30.04 in 10.0 mi SSE 9.2 mph - N/A   Clear
10:56 PM 61.0 °F - 33.1 °F 35% 30.04 in 10.0 mi SSE 4.6 mph - N/A   Clear
11:56 PM 55.9 °F - 32.0 °F 40% 30.04 in 10.0 mi SE 5.8 mph - N/A   Clear